Weather History for KTMK - January, 2013

Change the Weather History Date:

Tuesday, January 8, 2013

  Actual Average (KMMV) Record (KMMV)
Temperature  
Mean Temperature 50 °F 40 °F  
Max Temperature 53 °F 47 °F 59 °F (2002)
Min Temperature 46 °F 33 °F 9 °F (1974)
Degree Days  
Heating Degree Days 16 25  
Month to date heating degree days 201  
Since 1 July heating degree days 2206  
Cooling Degree Days 0 0  
Month to date cooling degree days 0  
Year to date cooling degree days 0  
Moisture  
Dew Point 50 °F    
Average Humidity 94    
Maximum Humidity 100    
Minimum Humidity 82    
Precipitation  
Precipitation 0.27 in 0.22 in 2.14 in (1989)
Month to date precipitation 1.76  
Year to date precipitation 1.76  
Sea Level Pressure  
Sea Level Pressure 30.08 in    
Wind  
Wind Speed 8 mph (South)    
Max Wind Speed 24 mph    
Max Gust Speed 38 mph    
Visibility 5 miles    
Events Rain    
T = Trace of Precipitation, MM = Missing Value Source: NWS Daily Summary

Daily Weather History Graph

Daily Weather History Graph

Search for Another Location

Airport or City:

Trip Planner

Search our weather history database for the weather conditions in past years. The results will help you decide how hot, cold, wet, or windy it might be!

Date:

Astronomy

Jan. 08, 2013 Rise Set
Actual Time 8:54 AM MST 5:50 PM MST
Civil Twilight 8:20 AM MST 6:24 PM MST
Nautical Twilight 7:43 AM MST 7:01 PM MST
Astronomical Twilight 7:07 AM MST 7:36 PM MST
Moon 5:32 AM MST (1/8) 2:58 PM MST (1/8)
Length of Visible Light 10h 03m
Length of Day
8h 56m
Waning Crescent, 13% of the Moon is Illuminated
Jan 8
Waning Crescent
Jan 11
New
Jan 18
First Quarter
Jan 26
Full
Feb 3
Last Quarter

Hourly Weather History & Observations

Time (MST) Temp. Windchill Dew Point Humidity Pressure Visibility Wind Dir Wind Speed Gust Speed Precip Events Conditions
12:15 AM 48.2 °F - 48.2 °F 100% 30.22 in 5.0 mi Calm Calm - N/A   Overcast
12:35 AM 48.2 °F - 48.2 °F 100% 30.22 in 5.0 mi Calm Calm - N/A   Overcast
12:55 AM 48.2 °F - 48.2 °F 100% 30.22 in 5.0 mi Calm Calm - N/A   Overcast
1:15 AM 46.4 °F 45.2 °F 46.4 °F 100% 30.21 in 7.0 mi South 3.5 mph - N/A   Light Drizzle
1:35 AM 46.4 °F - 46.4 °F 100% 30.21 in 5.0 mi Calm Calm - N/A   Drizzle
1:55 AM 48.2 °F - 48.2 °F 100% 30.21 in 7.0 mi Calm Calm - 0.01 in   Drizzle
2:15 AM 48.2 °F - 48.2 °F 100% 30.21 in 5.0 mi Calm Calm - N/A   Drizzle
2:35 AM 48.2 °F - 48.2 °F 100% 30.19 in 5.0 mi East 4.6 mph - N/A   Drizzle
2:55 AM 48.2 °F - 48.2 °F 100% 30.19 in 10.0 mi East 5.8 mph - N/A   Overcast
3:15 AM 48.2 °F - 48.2 °F 100% 30.19 in 5.0 mi Calm Calm - N/A Rain Light Rain
3:35 AM 46.4 °F 43.5 °F 46.4 °F 100% 30.18 in 4.0 mi ENE 5.8 mph - 0.01 in   Drizzle
3:55 AM 46.4 °F 43.5 °F 46.4 °F 100% 30.16 in 4.0 mi ENE 5.8 mph - 0.01 in   Drizzle
4:15 AM 46.4 °F 43.5 °F 46.4 °F 100% 30.16 in 3.0 mi ENE 5.8 mph - 0.01 in   Drizzle
4:35 AM 46.4 °F - 46.4 °F 100% 30.15 in 3.0 mi Calm Calm - 0.02 in   Heavy Drizzle
5:15 AM 46.4 °F 45.2 °F 46.4 °F 100% 30.13 in 2.5 mi North 3.5 mph - 0.02 in Rain Heavy Rain
5:35 AM 46.4 °F 44.3 °F 46.4 °F 100% 30.12 in 3.0 mi NNE 4.6 mph - 0.05 in   Heavy Drizzle
5:55 AM 46.4 °F 43.5 °F 46.4 °F 100% 30.11 in 3.0 mi NNE 5.8 mph - 0.08 in   Heavy Drizzle
6:35 AM 48.2 °F - 48.2 °F 100% 30.09 in 5.0 mi Calm Calm - 0.03 in   Drizzle
7:15 AM 51.8 °F - 51.8 °F 100% 30.08 in 3.0 mi SSW 17.3 mph 24.2 mph 0.02 in Rain Rain
7:35 AM 53.6 °F - 53.6 °F 100% 30.08 in 4.0 mi SW 15.0 mph 26.5 mph 0.04 in Rain Rain
7:55 AM 51.8 °F - 51.8 °F 100% 30.09 in 3.0 mi SW 12.7 mph - 0.06 in Rain Rain
8:15 AM 51.8 °F - 51.8 °F 100% 30.09 in 4.0 mi SW 12.7 mph 17.3 mph 0.01 in Rain Light Rain
8:35 AM 53.6 °F - 51.8 °F 94% 30.09 in 7.0 mi SW 10.4 mph 19.6 mph 0.03 in Rain Light Rain
8:55 AM 53.6 °F - 51.8 °F 94% 30.09 in 3.0 mi SSW 13.8 mph 25.3 mph 0.03 in   Drizzle
9:15 AM 51.8 °F - 51.8 °F 100% 30.09 in 1.8 mi SSW 17.3 mph 24.2 mph 0.01 in   Drizzle
9:35 AM 53.6 °F - 51.8 °F 94% 30.10 in 3.0 mi SSW 17.3 mph 29.9 mph 0.01 in Rain Light Rain
9:55 AM 53.6 °F - 51.8 °F 94% 30.10 in 2.0 mi South 18.4 mph 32.2 mph 0.01 in Rain Rain
10:15 AM 53.6 °F - 51.8 °F 94% 30.10 in 4.0 mi South 13.8 mph 20.7 mph N/A Rain Light Rain
10:35 AM 53.6 °F - 51.8 °F 94% 30.11 in 3.0 mi SSW 10.4 mph 17.3 mph 0.01 in Rain Light Rain
10:55 AM 53.6 °F - 51.8 °F 94% 30.11 in 1.8 mi SSW 15.0 mph 23.0 mph 0.01 in   Light Drizzle
11:15 AM 53.6 °F - 51.8 °F 94% 30.11 in 2.0 mi South 11.5 mph 15.0 mph N/A   Light Drizzle
11:35 AM 53.6 °F - 51.8 °F 94% 30.11 in 1.8 mi South 16.1 mph 23.0 mph N/A   Drizzle
11:55 AM 53.6 °F - 51.8 °F 94% 30.11 in 2.5 mi SSW 9.2 mph 23.0 mph N/A Rain Light Rain
12:15 PM 53.6 °F - 51.8 °F 94% 30.09 in 1.5 mi SSW 16.1 mph 25.3 mph N/A Rain Light Rain
12:55 PM 53.6 °F - 51.8 °F 94% 30.08 in 4.0 mi South 17.3 mph 23.0 mph 0.01 in   Overcast
1:15 PM 53.6 °F - 51.8 °F 94% 30.08 in 1.8 mi South 17.3 mph 31.1 mph N/A   Overcast
1:35 PM 53.6 °F - 51.8 °F 94% 30.07 in 1.2 mi South 24.2 mph 32.2 mph N/A Rain Light Rain
1:55 PM 53.6 °F - 51.8 °F 94% 30.07 in 1.5 mi South 21.9 mph 33.4 mph N/A Rain Rain
2:15 PM 53.6 °F - 51.8 °F 94% 30.06 in 1.2 mi South 18.4 mph 28.8 mph N/A   Drizzle
2:35 PM 53.6 °F - 51.8 °F 94% 30.06 in 2.5 mi South 19.6 mph 29.9 mph N/A   Overcast
2:55 PM 53.6 °F - 51.8 °F 94% 30.05 in 10.0 mi South 23.0 mph 38.0 mph N/A   Overcast
3:15 PM 53.6 °F - 51.8 °F 94% 30.04 in 3.0 mi South 20.7 mph 29.9 mph N/A   Overcast
3:35 PM 53.6 °F - 51.8 °F 94% 30.05 in 5.0 mi South 13.8 mph 25.3 mph N/A   Overcast
3:55 PM 53.6 °F - 50.0 °F 88% 30.05 in 4.0 mi South 15.0 mph 27.6 mph N/A   Overcast
4:15 PM 53.6 °F - 50.0 °F 88% 30.05 in 3.0 mi South 19.6 mph 26.5 mph N/A Rain Rain
4:35 PM 53.6 °F - 50.0 °F 88% 30.04 in 2.5 mi SSW 20.7 mph 29.9 mph N/A Rain Light Rain
4:55 PM 53.6 °F - 50.0 °F 88% 30.04 in 7.0 mi South 15.0 mph 23.0 mph N/A   Overcast
5:15 PM 53.6 °F - 50.0 °F 88% 30.03 in 3.0 mi South 15.0 mph 24.2 mph N/A   Light Drizzle
5:35 PM 53.6 °F - 50.0 °F 88% 30.03 in 5.0 mi South 10.4 mph - N/A   Overcast
5:55 PM 53.6 °F - 50.0 °F 88% 30.02 in 3.0 mi South 17.3 mph 23.0 mph N/A   Overcast
6:15 PM 53.6 °F - 50.0 °F 88% 30.01 in 7.0 mi South 17.3 mph 23.0 mph N/A   Overcast
6:35 PM 53.6 °F - 50.0 °F 88% 30.00 in 10.0 mi South 10.4 mph 19.6 mph N/A   Overcast
6:55 PM 53.6 °F - 50.0 °F 88% 29.99 in 10.0 mi SSW 12.7 mph 19.6 mph N/A   Overcast
7:15 PM 53.6 °F - 50.0 °F 88% 29.99 in 10.0 mi SSW 9.2 mph 20.7 mph N/A   Drizzle
7:35 PM 53.6 °F - 50.0 °F 88% 29.99 in 10.0 mi South 10.4 mph 19.6 mph N/A   Light Drizzle
7:55 PM 53.6 °F - 50.0 °F 88% 29.99 in 10.0 mi South 13.8 mph 18.4 mph N/A Rain Rain
8:35 PM 53.6 °F - 50.0 °F 88% 29.97 in 5.0 mi South 16.1 mph 21.9 mph N/A   Drizzle
9:15 PM 51.8 °F - 50.0 °F 94% 29.96 in 5.0 mi South 12.7 mph 29.9 mph N/A Rain Light Rain
9:35 PM 51.8 °F - 50.0 °F 94% 29.96 in 5.0 mi South 12.7 mph 18.4 mph N/A   Drizzle
10:15 PM 51.8 °F - 50.0 °F 94% 29.94 in 5.0 mi SSW 8.1 mph 21.9 mph N/A   Drizzle
10:55 PM 51.8 °F - 48.2 °F 88% 29.95 in 4.0 mi SSW 18.4 mph 28.8 mph N/A Rain Light Rain
11:15 PM 51.8 °F - 48.2 °F 88% 29.93 in 5.0 mi SSW 17.3 mph 32.2 mph N/A   Light Drizzle
11:35 PM 51.8 °F - 48.2 °F 88% 29.92 in 5.0 mi South 18.4 mph 33.4 mph N/A   Overcast
11:55 PM 51.8 °F - 46.4 °F 82% 29.91 in 10.0 mi South 19.6 mph 32.2 mph N/A   Overcast